Simultaneous Nadir Overpasses (SNOs) Predictions

Prediction of SNOs between LANDSAT-8 and NOAA-19 Satellite Orbit:

Table of predicted SNOs for the next 14.0 days since TLE Epoch: 5/14/2022
Index Date (LANDSAT-8) Time (LANDSAT-8) Lat,Lon (LANDSAT-8) SZA (LANDSAT-8 ) Date (NOAA-19) Time (NOAA-19) Lat,Lon (NOAA-19) SZA (NOAA-19 ) Distance(km) Time Diff (sec)
1 05/14/2022 20:42:38 80.77, -95.38 63.84 05/14/2022 20:42:37 80.77, -95.29 63.84 1.62 1
2 05/17/2022 02:16:23 -80.78, 1.23 116.68 05/17/2022 02:15:36 -80.77, 1.36 116.69 2.41 47
3 05/17/2022 03:05:50 80.75, 168.59 63.27 05/17/2022 03:06:35 80.77, 168.74 63.32 3.24 45
4 05/19/2022 08:39:34 -80.78, -94.52 117.17 05/19/2022 08:39:33 -80.77, -94.49 117.17 1.05 1
5 05/21/2022 14:13:18 80.78, 2.02 62.37 05/21/2022 14:12:31 80.78, 2.17 62.37 2.79 47
6 05/21/2022 15:02:45 -80.78, 169.66 117.64 05/21/2022 15:03:30 -80.77, 169.61 117.63 1.12 45
7 05/23/2022 20:36:29 80.77, -93.89 61.91 05/23/2022 20:36:29 80.78, -93.93 61.92 1.71 0
8 05/26/2022 02:10:13 -80.78, 2.85 118.47 05/26/2022 02:09:25 -80.78, 2.84 118.49 0.25 48



Historial Predications of SNOs between LANDSAT-8 and NOAA-19
